Location: Kelowna
(49.8880°N, 119.4960°W)
Time: 05:40:47
(UTC-07:00)

VELOX 1 - Visible Passes

Search period start: 11 September 2024 00:00
Search period end: 21 September 2024 00:00
Orbit: 600 x 611 km, 98.3° (Epoch: 11 September)

Date Brightness Start Highest point End Pass type
(mag) Time Alt. Az. Time Alt. Az. Time Alt. Az.
11 Sep ? 20:47:26 10° NE 20:50:33 22° E 20:50:33 22° E visible
11 Sep ? 22:22:44 10° N 22:26:47 43° WNW 22:27:24 40° W visible
12 Sep ? 20:59:57 10° NE 21:03:14 29° E 21:03:14 29° E visible
12 Sep ? 22:35:39 10° N 22:39:30 33° WNW 22:40:05 32° W visible
13 Sep ? 21:12:31 10° NNE 21:15:52 36° ENE 21:15:52 36° ENE visible
13 Sep ? 22:48:36 10° N 22:52:09 26° WNW 22:52:42 25° WNW visible
14 Sep ? 21:25:08 10° NNE 21:28:29 44° ENE 21:28:29 44° ENE visible
14 Sep ? 23:01:35 10° NNW 23:04:46 21° WNW 23:05:20 20° WNW visible
15 Sep ? 21:37:47 10° NNE 21:41:05 50° NE 21:41:05 50° NE visible
15 Sep ? 23:14:38 10° NNW 23:17:20 17° WNW 23:17:56 16° WNW visible
16 Sep ? 21:50:27 10° NNE 21:53:39 50° NNE 21:53:39 50° NNE visible
16 Sep ? 23:27:50 10° NNW 23:29:50 13° NW 23:30:29 13° WNW visible
17 Sep ? 20:28:45 10° NE 20:29:22 12° ENE 20:29:22 12° ENE visible
17 Sep ? 22:03:07 10° N 22:06:12 45° N 22:06:12 45° N visible
17 Sep ? 23:41:34 10° NW 23:42:19 10° NW 23:43:02 10° WNW visible
18 Sep ? 20:40:51 10° NE 20:41:53 14° ENE 20:41:53 14° ENE visible
18 Sep ? 22:15:49 10° N 22:18:43 38° NNW 22:18:43 38° NNW visible
19 Sep ? 20:53:06 10° NE 20:54:23 16° NE 20:54:23 16° NE visible
19 Sep ? 22:28:31 10° N 22:31:13 31° NNW 22:31:13 31° NNW visible
20 Sep ? 21:05:26 10° NNE 21:06:51 18° NE 21:06:51 18° NE visible
20 Sep ? 22:41:14 10° N 22:43:41 26° NNW 22:43:41 26° NNW visible
